Retour au catalogue

STARLINK-36681

ActifCommunicationsVLEO
NORAD 68720·PAYLOAD·🇺🇸 United States

Lancé Apr 14, 2026 depuis Cape Canaveral Space Force Station

Loading…

Prochains Passages (prochaines 24 heures)

TLE

FraisSource: CelesTrak SupGP

Époque: Sep 15, 2026, 03:27 UTC

1 68720C 26081X   26258.14423611 -.00057793  00000+0 -17075-2 0  2587
2 68720  53.1581 230.5451 0001427  86.0232 113.3877 15.34420370    13

Suivez STARLINK-36681 en temps réel avec AllMySat

Download on the App Store